Location: Monroe
(41.9160°N, 83.3980°W)
Time: 05:29:42
(UTC-04:00)

ISS - Visible Passes

Search period start: 26 October 2014 00:00
Search period end: 04 November 2014 23:00
Orbit: 412 x 416 km, 51.6° (Epoch: 26 October)

Date Brightness Start Highest point End Pass type
(mag) Time Alt. Az. Time Alt. Az. Time Alt. Az.
26 Oct -2.6 19:37:06 10° WNW 19:40:23 55° SW 19:43:39 10° SE visible
27 Oct -0.2 20:26:10 10° WSW 20:27:23 12° SW 20:28:37 10° SSW visible
28 Oct -0.6 19:35:46 10° W 19:38:19 20° SW 19:40:51 10° S visible
